EW6005 Weather Reports


Display with metric or nautical units.
time (UTC)temp
F
wind
direction
speed
MPH
gust
MPH
rain 1hr
in
rain 24hr
in
rain mn
in
humidity
%
barometer
mb
20260504190533 80 0 3.0 9.0 0.00 0.00 0.00 64 999.2
20260504190033 80 0 3.0 9.0 0.00 0.00 0.00 63 999.4
20260504185755 80 0 3.0 14.0 0.00 0.00 0.00 64 999.4
20260504185029 80 0 4.0 14.0 0.00 0.00 0.00 64 999.5
20260504184528 80 0 3.0 10.0 0.00 0.00 0.00 63 999.4
20260504184029 80 0 3.0 9.0 0.00 0.00 0.00 65 999.5
20260504183529 80 0 3.0 9.0 0.00 0.00 0.00 65 999.6
20260504183030 80 0 3.0 6.0 0.00 0.00 0.00 66 999.5
20260504182525 80 63 4.0 12.0 0.00 0.00 0.00 65 999.6
20260504182013 80 0 3.0 12.0 0.00 0.00 0.00 64 999.7
20260504181513 80 0 3.0 13.0 0.00 0.00 0.00 65 999.7
20260504181013 80 0 3.0 13.0 0.00 0.00 0.00 65 999.7
20260504180512 80 0 3.0 10.0 0.00 0.00 0.00 66 999.8
20260504180013 80 0 3.0 10.0 0.00 0.00 0.00 65 999.9
20260504175513 80 63 2.0 8.0 0.00 0.00 0.00 66 999.8
20260504175013 79 63 3.0 8.0 0.00 0.00 0.00 66 1000.0
20260504174513 79 59 3.0 10.0 0.00 0.00 0.00 66 1000.0
20260504174013 78 63 2.0 10.0 0.00 0.00 0.00 67 1000.1
20260504173513 78 65 2.0 9.0 0.00 0.00 0.00 67 1000.1
20260504173013 78 85 3.0 11.0 0.00 0.00 0.00 66 1000.2
20260504172512 78 59 4.0 11.0 0.00 0.00 0.00 65 1000.2
20260504172013 78 55 4.0 10.0 0.00 0.00 0.00 65 1000.3
20260504171511 79 0 3.0 11.0 0.00 0.00 0.00 66 1000.5
20260504171012 78 0 4.0 11.0 0.00 0.00 0.00 66 1000.6
20260504170514 78 0 3.0 10.0 0.00 0.00 0.00 67 1000.5
20260504150959 73 0 2.0 14.0 0.00 0.00 0.00 73 1001.6
20260504150501 73 0 2.0 10.0 0.00 0.00 0.00 75 1001.5
20260504141220 68 0 1.0 4.0 0.00 0.00 0.00 80 1001.6
20260504140502 67 0 1.0 4.0 0.00 0.00 0.00 81 1001.6
20260504130714 60 0 0.0 2.0 0.00 0.00 0.00 90 1001.3
20260504130225 59 0 0.0 0.0 0.00 0.00 0.00 91 1001.4
20260504110424 57 0 0.0 0.0 0.00 0.00 0.00 89 1000.9
20260504100406 58 0 0.0 0.0 0.00 0.00 0.00 87 1001.3
20260504081841 60 0 0.0 0.0 0.00 0.00 0.00 83 1001.9
20260504081341 60 0 0.0 1.0 0.00 0.00 0.00 82 1001.9
20260504080841 60 0 0.0 1.0 0.00 0.00 0.00 82 1001.8
20260504080339 60 0 0.0 0.0 0.00 0.00 0.00 82 1001.9
20260504070338 61 0 0.0 0.0 0.00 0.00 0.00 80 1003.0
20260504050333 65 0 1.0 3.0 0.00 0.00 0.00 72 1003.7
20260504045830 65 0 1.0 3.0 0.00 0.00 0.00 71 1003.8
20260504045329 65 0 1.0 2.0 0.00 0.00 0.00 71 1003.8
20260504044827 65 0 0.0 2.0 0.00 0.00 0.00 71 1003.7
20260504044326 65 0 0.0 1.0 0.00 0.00 0.00 71 1003.8
20260504043824 65 0 1.0 2.0 0.00 0.00 0.00 70 1003.9
20260504043550 66 0 1.0 2.0 0.00 0.00 0.00 70 1004.0
20260504042820 66 0 0.0 2.0 0.00 0.00 0.00 70 1003.9
20260504042539 66 0 1.0 3.0 0.00 0.00 0.00 70 1003.9
20260504041816 66 0 1.0 3.0 0.00 0.00 0.00 69 1003.9
20260504041316 66 0 1.0 3.0 0.00 0.00 0.00 69 1003.9
20260504041307 66 0 1.0 3.0 0.00 0.00 0.00 69 1003.9
20260504040316 66 0 1.0 3.0 0.00 0.00 0.00 69 1003.9
20260504035811 66 0 1.0 4.0 0.00 0.00 0.00 68 1003.9
20260504035309 66 0 2.0 4.0 0.00 0.00 0.00 68 1004.0
20260504034810 66 0 1.0 3.0 0.00 0.00 0.00 68 1003.9
20260504034308 67 0 1.0 2.0 0.00 0.00 0.00 68 1003.8
20260504033808 67 0 0.0 1.0 0.00 0.00 0.00 68 1003.9
20260504033301 67 0 0.0 0.0 0.00 0.00 0.00 69 1003.9
20260504032757 67 0 0.0 0.0 0.00 0.00 0.00 69 1003.8
20260504032258 67 0 0.0 0.0 0.00 0.00 0.00 68 1003.9
20260504032022 67 0 0.0 2.0 0.00 0.00 0.00 67 1003.8
20260504031255 67 0 1.0 3.0 0.00 0.00 0.00 67 1003.8
20260504030755 67 0 1.0 3.0 0.00 0.00 0.00 67 1003.8
20260504030255 67 0 1.0 4.0 0.00 0.00 0.00 67 1003.7
20260504030020 67 0 1.0 4.0 0.00 0.00 0.00 68 1003.7
20260504025251 67 0 1.0 3.0 0.00 0.00 0.00 68 1003.7
20260504024749 67 0 1.0 2.0 0.00 0.00 0.00 68 1003.6
20260504024250 67 0 1.0 3.0 0.00 0.00 0.00 69 1003.6
20260504023746 67 0 1.0 3.0 0.00 0.00 0.00 69 1003.5
20260504023243 66 0 0.0 2.0 0.00 0.00 0.00 69 1003.5
20260504022744 67 0 0.0 0.0 0.00 0.00 0.00 70 1003.4
20260504022244 67 0 0.0 0.0 0.00 0.00 0.00 69 1003.5
20260504021745 67 0 0.0 0.0 0.00 0.00 0.00 68 1003.5
20260504021241 67 0 0.0 0.0 0.00 0.00 0.00 68 1003.4
20260504020739 68 0 0.0 0.0 0.00 0.00 0.00 67 1003.3
20260504020500 68 0 0.0 0.0 0.00 0.00 0.00 66 1003.2
20260504015735 68 0 0.0 0.0 0.00 0.00 0.00 65 1003.2
20260504015237 69 0 0.0 0.0 0.00 0.00 0.00 65 1003.1
20260504015220 69 0 0.0 0.0 0.00 0.00 0.00 64 1003.0
20260504014228 69 0 0.0 0.0 0.00 0.00 0.00 64 1003.0
20260504013727 70 0 0.0 0.0 0.00 0.00 0.00 65 1003.0
20260504013227 70 0 0.0 0.0 0.00 0.00 0.00 64 1003.0
20260504012727 71 0 0.0 1.0 0.00 0.00 0.00 63 1003.0
20260504012227 71 0 0.0 1.0 0.00 0.00 0.00 62 1003.0
20260504011727 71 0 0.0 0.0 0.00 0.00 0.00 61 1002.8
20260504011228 72 0 0.0 0.0 0.00 0.00 0.00 60 1002.7
20260504010724 72 0 0.0 0.0 0.00 0.00 0.00 60 1002.7
20260504010447 73 0 0.0 0.0 0.00 0.00 0.00 59 1002.8
20260504005717 73 0 0.0 0.0 0.00 0.00 0.00 58 1002.8
20260504005215 74 0 0.0 0.0 0.00 0.00 0.00 57 1002.8
20260504004715 74 0 0.0 0.0 0.00 0.00 0.00 55 1002.9
20260504004215 75 0 0.0 0.0 0.00 0.00 0.00 54 1002.7
20260504003715 75 0 0.0 0.0 0.00 0.00 0.00 54 1002.8
20260504003215 76 0 0.0 1.0 0.00 0.00 0.00 54 1002.9
20260504002716 76 0 0.0 1.0 0.00 0.00 0.00 53 1002.9
20260504002433 76 0 0.0 0.0 0.00 0.00 0.00 53 1003.0
20260504001716 76 0 0.0 3.0 0.00 0.00 0.00 53 1003.0
20260504001211 77 0 0.0 3.0 0.00 0.00 0.00 51 1002.9
20260504000711 77 0 1.0 2.0 0.00 0.00 0.00 52 1002.9
20260504000212 77 0 1.0 2.0 0.00 0.00 0.00 51 1003.1
20260503235711 77 0 0.0 3.0 0.00 0.00 0.00 51 1003.0
20260503235212 78 0 0.0 3.0 0.00 0.00 0.00 50 1003.1
20260503234711 78 0 0.0 2.0 0.00 0.00 0.00 49 1003.1
20260503234211 78 0 0.0 2.0 0.00 0.00 0.00 49 1003.1
20260503233711 78 0 1.0 5.0 0.00 0.00 0.00 51 1003.1
20260503233658 78 0 1.0 6.0 0.00 0.00 0.00 48 1003.1
20260503232707 78 0 1.0 6.0 0.00 0.00 0.00 46 1003.1
20260503232431 79 0 1.0 5.0 0.00 0.00 0.00 50 1003.1
20260503231707 79 0 1.0 5.0 0.00 0.00 0.00 47 1003.2
20260503231430 79 0 1.0 5.0 0.00 0.00 0.00 47 1003.2
20260503230933 79 0 1.0 4.0 0.00 0.00 0.00 44 1003.2
20260503230207 79 0 2.0 5.0 0.00 0.00 0.00 46 1003.2
20260503225706 79 0 1.0 5.0 0.00 0.00 0.00 45 1003.3
20260503225207 79 0 1.0 4.0 0.00 0.00 0.00 48 1003.3
20260503224707 79 0 1.0 4.0 0.00 0.00 0.00 45 1003.4
20260503224206 79 0 1.0 3.0 0.00 0.00 0.00 46 1003.4
20260503223923 79 0 1.0 9.0 0.00 0.00 0.00 45 1003.4
20260503223207 79 0 2.0 9.0 0.00 0.00 0.00 45 1003.5
20260503222707 79 0 1.0 8.0 0.00 0.00 0.00 46 1003.6
20260503222207 79 0 0.0 2.0 0.00 0.00 0.00 48 1003.7
20260503221706 79 0 1.0 3.0 0.00 0.00 0.00 47 1003.7
20260503221206 79 0 1.0 4.0 0.00 0.00 0.00 47 1003.8
20260503220802 80 0 1.0 4.0 0.00 0.00 0.00 47 1003.9
20260503215659 79 0 1.0 5.0 0.00 0.00 0.00 46 1003.9
20260503215159 79 0 1.0 3.0 0.00 0.00 0.00 47 1003.8
20260503214659 79 0 1.0 3.0 0.00 0.00 0.00 45 1003.8
20260503214159 79 0 0.0 2.0 0.00 0.00 0.00 48 1003.9
20260503213659 79 0 0.0 3.0 0.00 0.00 0.00 50 1003.9
20260503213159 79 0 1.0 6.0 0.00 0.00 0.00 46 1004.1
20260503212659 79 0 1.0 6.0 0.00 0.00 0.00 48 1004.3
20260503212159 80 0 1.0 4.0 0.00 0.00 0.00 46 1004.5
20260503211659 80 0 1.0 4.0 0.00 0.00 0.00 47 1004.5
20260503211422 80 0 1.0 4.0 0.00 0.00 0.00 48 1004.6
20260503210658 80 117 0.0 3.0 0.00 0.00 0.00 47 1004.5
20260503210158 80 0 0.0 2.0 0.00 0.00 0.00 47 1004.6
20260503205659 80 324 1.0 5.0 0.00 0.00 0.00 49 1004.6
20260503205158 80 0 1.0 5.0 0.00 0.00 0.00 48 1004.7
20260503204658 79 0 1.0 3.0 0.00 0.00 0.00 47 1004.8
20260503204159 79 0 1.0 3.0 0.00 0.00 0.00 46 1004.9
20260503203659 79 0 0.0 2.0 0.00 0.00 0.00 49 1005.0
20260503203159 80 0 1.0 3.0 0.00 0.00 0.00 47 1005.2
20260503202657 80 157 1.0 4.0 0.00 0.00 0.00 48 1005.2
20260503202157 80 163 1.0 4.0 0.00 0.00 0.00 48 1005.4
20260503201657 80 27 0.0 2.0 0.00 0.00 0.00 52 1005.4
20260503201157 80 0 0.0 2.0 0.00 0.00 0.00 49 1005.5
20260503200656 80 11 0.0 4.0 0.00 0.00 0.00 49 1005.6
20260503200157 80 180 1.0 4.0 0.00 0.00 0.00 48 1005.7
20260503195655 80 304 1.0 5.0 0.00 0.00 0.00 47 1005.8
20260503195154 80 252 1.0 5.0 0.00 0.00 0.00 48 1005.8
20260503194653 80 167 2.0 5.0 0.00 0.00 0.00 46 1005.9
20260503194146 80 176 2.0 8.0 0.00 0.00 0.00 47 1005.9
20260503193644 81 211 2.0 8.0 0.00 0.00 0.00 45 1006.1
20260503193145 81 200 0.0 3.0 0.00 0.00 0.00 49 1006.2
20260503192644 81 103 1.0 3.0 0.00 0.00 0.00 50 1006.2
20260503192407 80 88 1.0 6.0 0.00 0.00 0.00 48 1006.3
20260503191645 80 9 1.0 7.0 0.00 0.00 0.00 47 1006.3
20260503191144 80 165 1.0 7.0 0.00 0.00 0.00 46 1006.5